[[{"header":{"parameterUnit":"m.s-1","parameterCategory":2,"la1":30.2991,"la2":30.254,"lo1":-89.0895,"lo2":-89.0444,"dy":0.0017,"dx":0.0017,"nx":28,"ny":28,"refTime":"2023-10-27T09:00:00:Z","depth":"0","parameterNumber":2,"parameterNumberName":"U-component_of_CURRENTS"},"data":[0,0,0,0,0,0,0,0,0,0,0,0,0,0,0,0,0,0,0,0,0,0,0,0,0,0,0,0,0,0,0,0,0,0,0,0,0,0,0,0,0,0,0,0,0,0,0,0,0,0,0,0,0,0,0,0,0,0,0.2261,0.2262,0,0.2345,0.2346,0.2347,0.2398,0.2398,0.2398,0.2398,0.2445,0.2446,0.2448,0,0,0,0,0,0,0,0,0,0,0,0,0,0.2409,0.2405,0.2261,0.2262,0.2263,0.2345,0.2346,0.2348,0.2398,0.2398,0.2398,0.2398,0.2445,0.2446,0.2448,0,0,0,0,0,0,0,0,0,0,0,0,0,0.2406,0.2403,0.2261,0.2296,0.2299,0.2345,0.2346,0.2348,0.2398,0.2398,0.2398,0.2398,0.2444,0.2446,0.2448,0.246,0,0,0.2454,0.2455,0,0,0,0,0,0,0,0,0.2406,0.24,0.229,0.2293,0.2297,0.2359,0.2416,0.2383,0.2398,0.2363,0.2398,0.2398,0.2411,0.2416,0.2436,0.2462,0.2464,0.2454,0.2455,0.2456,0.2456,0,0,0,0,0,0,0,0.2405,0.2399,0.2297,0.229,0.2295,0.2398,0.2395,0.2412,0.2387,0.2366,0.2369,0.2374,0.2413,0.2434,0.2437,0.2465,0.2454,0.2456,0.2457,0.2457,0.2567,0.2569,0,0,0,0,0,0,0.2375,0.2397,0.2294,0.2299,0.235,0.2394,0.2391,0.2341,0.2388,0.2395,0.2374,0.2376,0.2431,0.2435,0.2439,0.2514,0.2456,0.2458,0.2459,0.2565,0.2568,0.2569,0,0,0,0,0,0,0.2377,0.2362,0.2291,0.2353,0.235,0.2389,0.2334,0.2343,0.2367,0.2394,0.2401,0.239,0.2431,0.2436,0.2474,0.2514,0.2459,0.246,0.2563,0.2566,0.2569,0.2627,0,0,0,0,0,0,0.2379,0.2361,0.2328,0.2347,0.2345,0.2322,0.2334,0.2344,0.2369,0.2373,0.241,0.2414,0.2431,0.2471,0.2476,0.2515,0.2462,0.2561,0.2565,0.2568,0.2623,0.2631,0.2638,0,0,0,0,0,0.2384,0.2325,0.2324,0.2313,0.229,0.2322,0.2331,0.2364,0.237,0.2386,0.2418,0.2413,0.2496,0.2474,0.2479,0.252,0.2559,0.2564,0.2567,0.2619,0.263,0.2638,0,0,0,0,0,0,0.2389,0.2325,0.2324,0.2253,0.2291,0.2329,0.2338,0.2364,0.2404,0.2403,0.2431,0.2439,0.2494,0.2493,0.2468,0.2562,0.2529,0.2534,0.2566,0.2576,0.2584,0.2575,0.2463,0,0,0,0,0,0.2367,0.2294,0.2299,0.2254,0.2259,0.2302,0.2321,0.2346,0.2379,0.2397,0.243,0.2465,0.2515,0.2531,0.2568,0.2606,0.2604,0.2637,0.2645,0.2652,0.2649,0.2675,0.2685,0.2583,0.2582,0.2582,0,0,0.2368,0.2318,0.2286,0.2251,0.2274,0.2305,0.2314,0.2335,0.2383,0.2393,0.2458,0.2493,0.2533,0.2595,0.2618,0.2596,0.2685,0.2657,0.2662,0.2656,0.268,0.269,0.2699,0.2585,0.2585,0.2584,0,0,0.2335,0.2279,0.2221,0.2248,0.2263,0.23,0.2305,0.235,0.2386,0.2448,0.2482,0.2534,0.2596,0.2643,0.2673,0.2738,0.273,0.2755,0.2783,0.2809,0.2817,0.2824,0.2853,0.2862,0.2753,0.2753,0.2753,0,0.2348,0.226,0.2231,0.2218,0.2252,0.2297,0.232,0.237,0.2435,0.2474,0.2472,0.2598,0.2624,0.2717,0.2749,0.2757,0.2768,0.2744,0.2818,0.2825,0.2831,0.2858,0.2868,0.2756,0.2756,0.2756,0.2755,0,0.2288,0.2255,0.2237,0.2223,0.2267,0.229,0.236,0.2412,0.2461,0.252,0.2614,0.266,0.2734,0.2761,0.2778,0.2853,0.2847,0.2829,0.279,0.2845,0.2871,0.2879,0.2761,0.276,0.2759,0.2758,0,0,0.2262,0.2194,0.2208,0.221,0.2272,0.2303,0.2389,0.2479,0.254,0.2612,0.2688,0.2786,0.281,0.2844,0.2875,0.2898,0.2961,0.2883,0.2883,0.2905,0.3026,0.2944,0.2945,0.2955,0.2957,0.2958,0.3032,0,0.2249,0.2183,0.2191,0.2239,0.2233,0.2327,0.241,0.2509,0.2594,0.268,0.2747,0.2824,0.2845,0.2875,0.2914,0.2946,0.2983,0.2943,0.2975,0.2976,0.289,0.2952,0.2673,0.2708,0.304,0.3042,0.3043,0,0.2216,0.2174,0.2152,0.2213,0.223,0.229,0.2432,0.2517,0.2659,0.272,0.2815,0.2863,0.2945,0.2926,0.3022,0.2996,0.3022,0.3035,0.3038,0.2941,0.2909,0.2704,0.271,0.2543,0.3055,0.3054,0.3053,0,0.2175,0.2184,0.2148,0.217,0.2234,0.2286,0.2372,0.2524,0.2606,0.274,0.2798,0.2903,0.295,0.2998,0.3059,0.3037,0.3141,0.3107,0.3067,0.3062,0.2818,0.2788,0.2651,0.3168,0.3168,0.3168,0.3167,0,0.2131,0.2139,0.2119,0.2104,0.2154,0.2243,0.2342,0.2448,0.2592,0.2691,0.2806,0.2876,0.2966,0.3043,0.3078,0.311,0.3165,0.3082,0.3076,0.2833,0.2805,0.2642,0.262,0.317,0.317,0.3169,0.3169,0,0.2078,0.205,0.2033,0.2075,0.2106,0.2154,0.2309,0.2391,0.2534,0.266,0.2696,0.2861,0.2954,0.3052,0.3133,0.3125,0.3021,0.3161,0.2876,0.2834,0.2585,0.2579,0.2426,0.2378,0.3093,0.3091,0.309,0,0.2015,0.1971,0.1989,0.2002,0.2018,0.2101,0.2175,0.234,0.2431,0.2645,0.2692,0.2829,0.2926,0.3035,0.3005,0.3046,0.2973,0.2819,0.2714,0.2537,0.2528,0.2458,0.2427,0.2427,0.242,0.2415,0.2411,0,0.1924,0.1925,0.1912,0.192,0.1972,0.2043,0.2155,0.2212,0.2415,0.251,0.2638,0.2723,0.2821,0.2723,0.2787,0.2767,0.2574,0.2708,0.2577,0.2042,0.1902,0.1862,0.2438,0.2362,0.2367,0.237,0.2373,0.2375,0.1879,0.186,0.1837,0.186,0.1913,0.198,0.2021,0.2135,0.2241,0.2356,0.2484,0.2506,0.2416,0.2434,0.2423,0.2113,0.228,0.1944,0.1972,0.1935,0.1802,0.2289,0.2174,0.2178,0.2181,0.2184,0.2186,0,0.1815,0.1791,0.1794,0.1808,0.1834,0.1898,0.2001,0.2025,0.2087,0.2148,0.2208,0.2011,0.1863,0.1776,0.1487,0.1354,0.1303,0.1284,0.1075,0.1108,0.1539,0.1415,0.1063,0.1063,0.1063,0.1063,0.1064,0.1064,0.1772,0.1728,0.1724,0.1717,0.1742,0.1765,0.1805,0.1836,0.1857,0.1756,0.1606,0.1556,0.1361,0.0988,0.0707,0.0691,0.0636,0.0528,0.071,0.0919,0.098,0.1038,0.0911,0.0459,0.0458,0.0102,0.0098,0.0096]},{"header":{"parameterUnit":"m.s-1","parameterCategory":2,"la1":30.2991,"la2":30.254,"lo1":-89.0895,"lo2":-89.0444,"dy":0.0017,"dx":0.0017,"nx":28,"ny":28,"refTime":"2023-10-27T09:00:00:Z","depth":"0","parameterNumber":3,"parameterNumberName":"V-component_of_CURRENTS"},"data":[0,0,0,0,0,0,0,0,0,0,0,0,0,0,0,0,0,0,0,0,0,0,0,0,0,0,0,0,0,0,0,0,0,0,0,0,0,0,0,0,0,0,0,0,0,0,0,0,0,0,0,0,0,0,0,0,0,0,-0.0032,-0.0033,0,-0.0144,-0.0145,-0.0147,-0.0225,-0.0226,-0.0226,-0.0226,-0.0417,-0.0422,-0.0427,0,0,0,0,0,0,0,0,0,0,0,0,0,-0.0082,-0.008,-0.0032,-0.0033,-0.0034,-0.0144,-0.0145,-0.0147,-0.0225,-0.0226,-0.0226,-0.0227,-0.0416,-0.0421,-0.0427,0,0,0,0,0,0,0,0,0,0,0,0,0,-0.0115,-0.0079,-0.0031,-0.0085,-0.0091,-0.0143,-0.0145,-0.0148,-0.0225,-0.0226,-0.0226,-0.0227,-0.0414,-0.0421,-0.0428,-0.0458,0,0,-0.0449,-0.0452,0,0,0,0,0,0,0,0,-0.0113,-0.0113,-0.0076,-0.0081,-0.0088,-0.0169,-0.0233,-0.0255,-0.0225,-0.0176,-0.0226,-0.0227,-0.034,-0.0353,-0.0375,-0.0467,-0.0476,-0.045,-0.0454,-0.0457,-0.0459,0,0,0,0,0,0,0,-0.011,-0.011,-0.0078,-0.0077,-0.0084,-0.0171,-0.0174,-0.0238,-0.0256,-0.018,-0.0186,-0.0195,-0.0344,-0.0367,-0.038,-0.0478,-0.045,-0.0456,-0.046,-0.0463,-0.0658,-0.0659,0,0,0,0,0,0,-0.0081,-0.0106,-0.0075,-0.0081,-0.01,-0.0168,-0.0173,-0.0144,-0.0254,-0.027,-0.0194,-0.0198,-0.0355,-0.0371,-0.0387,-0.047,-0.0457,-0.0464,-0.0468,-0.0657,-0.0658,-0.0659,0,0,0,0,0,0,-0.0081,-0.0075,-0.007,-0.0098,-0.0103,-0.0165,-0.0134,-0.0146,-0.0169,-0.0263,-0.0281,-0.0204,-0.0356,-0.0377,-0.0464,-0.0477,-0.0467,-0.0473,-0.0656,-0.0658,-0.0659,-0.0612,0,0,0,0,0,0,-0.0081,-0.0073,-0.0048,-0.0094,-0.01,-0.0096,-0.0133,-0.0148,-0.0173,-0.0179,-0.0278,-0.0296,-0.0358,-0.0453,-0.0471,-0.0486,-0.0479,-0.0655,-0.0657,-0.0659,-0.0612,-0.0611,-0.0611,0,0,0,0,0,-0.0082,-0.0043,-0.0044,-0.0042,-0.0059,-0.0096,-0.0107,-0.0157,-0.0172,-0.0181,-0.0263,-0.0293,-0.0477,-0.046,-0.048,-0.0498,-0.0654,-0.0656,-0.0658,-0.0612,-0.0611,-0.0611,0,0,0,0,0,0,-0.0077,-0.0049,-0.0051,-0.0012,-0.0047,-0.0108,-0.0119,-0.0148,-0.0216,-0.0226,-0.0313,-0.0338,-0.0418,-0.0464,-0.0443,-0.056,-0.0567,-0.0574,-0.0525,-0.0525,-0.0524,-0.0474,-0.0485,0,0,0,0,0,-0.0052,0.0001,-0.0023,0.0004,-0.0005,-0.0058,-0.0079,-0.0111,-0.0174,-0.0203,-0.0276,-0.0359,-0.0442,-0.0486,-0.0561,-0.0625,-0.0619,-0.0648,-0.0648,-0.0647,-0.0621,-0.0635,-0.0632,-0.0667,-0.0667,-0.0667,0,0,-0.0054,-0.0024,-0.0003,0.001,-0.0019,-0.0035,-0.0073,-0.0097,-0.0128,-0.0215,-0.0283,-0.0359,-0.0459,-0.0539,-0.0577,-0.058,-0.0631,-0.0649,-0.0648,-0.0622,-0.0637,-0.0633,-0.063,-0.0668,-0.0668,-0.0668,0,0,-0.0026,0.0008,0.0054,0.0037,0.0018,-0.0015,-0.0015,-0.0072,-0.0112,-0.0181,-0.026,-0.0339,-0.0456,-0.0534,-0.0588,-0.0624,-0.0627,-0.065,-0.061,-0.0625,-0.0621,-0.0617,-0.0583,-0.0577,-0.065,-0.065,-0.065,0,-0.0036,0.0035,0.0046,0.0067,0.0049,0.0002,-0.0002,-0.0049,-0.0135,-0.0171,-0.0195,-0.0365,-0.0451,-0.0551,-0.0572,-0.0621,-0.0606,-0.0604,-0.0619,-0.0616,-0.0613,-0.058,-0.0574,-0.0648,-0.0648,-0.0648,-0.0648,0,0.0023,0.0056,0.0071,0.01,0.0078,0.0067,0.001,-0.0028,-0.0076,-0.0129,-0.0223,-0.0336,-0.0427,-0.0479,-0.0543,-0.0583,-0.0569,-0.0613,-0.061,-0.0606,-0.0572,-0.0566,-0.0645,-0.0645,-0.0646,-0.0647,0,0,0.0031,0.0105,0.0104,0.0121,0.0096,0.0083,0.0034,-0.0021,-0.0043,-0.0132,-0.0166,-0.0321,-0.0356,-0.0417,-0.0503,-0.0528,-0.0509,-0.0553,-0.0554,-0.0496,-0.0492,-0.0408,-0.0394,-0.0549,-0.0549,-0.0548,-0.0467,0,0.0056,0.0137,0.0147,0.0156,0.0171,0.0114,0.0078,0.0017,-0.0041,-0.0086,-0.0194,-0.0259,-0.0341,-0.0376,-0.0416,-0.0496,-0.0495,-0.0523,-0.0523,-0.0522,-0.043,-0.0385,-0.0289,-0.0202,-0.0461,-0.046,-0.046,0,0.01,0.0148,0.0202,0.0209,0.0206,0.0197,0.0148,0.0109,0.0027,-0.0014,-0.0083,-0.0156,-0.0233,-0.0285,-0.0366,-0.0375,-0.0412,-0.0459,-0.0458,-0.0386,-0.0427,-0.0255,-0.0182,-0.0202,-0.0451,-0.0452,-0.0452,0,0.0131,0.0172,0.0232,0.0232,0.0232,0.0223,0.0204,0.0132,0.0112,0.0048,0.0046,-0.0059,-0.0091,-0.0165,-0.0267,-0.0308,-0.0315,-0.0393,-0.034,-0.0333,-0.0252,-0.0238,-0.0176,-0.0406,-0.0406,-0.0406,-0.0407,0,0.0171,0.0201,0.026,0.0284,0.0311,0.0283,0.0291,0.0247,0.0213,0.0219,0.0106,0.0105,-0.0059,-0.0102,-0.0199,-0.0222,-0.0256,-0.0292,-0.0301,-0.0231,-0.0218,-0.0235,-0.0263,-0.0403,-0.0404,-0.0405,-0.0405,0,0.0203,0.0253,0.0303,0.033,0.0339,0.0356,0.0364,0.0369,0.0334,0.0349,0.0341,0.0245,0.0207,0.0076,-0.0031,-0.0107,-0.0131,-0.0164,-0.004,-0.0035,-0.0009,-0.0038,0.0072,0.0078,-0.008,-0.0078,-0.0075,0,0.0249,0.029,0.0347,0.038,0.0399,0.0429,0.0448,0.0428,0.0447,0.0443,0.0466,0.043,0.0442,0.0342,0.0204,0.0119,0.0019,0.0123,0.0046,0.0053,0.0011,-0.0008,-0.0015,0.0176,0.018,0.0184,0.0186,0,0.0295,0.0319,0.036,0.0437,0.0481,0.0527,0.0565,0.0604,0.06,0.0642,0.069,0.0711,0.0648,0.0612,0.0492,0.0394,0.0175,0.0191,0.015,0.0207,0.024,0.0221,0.0082,0.0216,0.0213,0.0211,0.0209,0.0208,0.0321,0.0356,0.0421,0.0485,0.0543,0.0617,0.0663,0.0734,0.0812,0.0898,0.0896,0.0985,0.0926,0.0792,0.0669,0.0498,0.0435,0.0424,0.039,0.037,0.0385,0.0352,0.0493,0.0492,0.0491,0.049,0.0489,0,0.0351,0.0399,0.0463,0.0544,0.0611,0.0637,0.0733,0.0796,0.0926,0.1062,0.1154,0.122,0.1188,0.1012,0.0811,0.0707,0.0615,0.0619,0.0586,0.0562,0.0502,0.0519,0.0734,0.0734,0.0734,0.0734,0.0734,0.0734,0.0379,0.0441,0.0474,0.0589,0.0646,0.0741,0.0802,0.0926,0.1044,0.1225,0.1324,0.1381,0.1279,0.1069,0.0869,0.0794,0.069,0.0729,0.0626,0.0547,0.0523,0.0501,0.051,0.0719,0.0719,0.0722,0.0722,0.0722]}],[{"header":{"parameterUnit":"m.s-1","parameterCategory":2,"la1":30.2991,"la2":30.254,"lo1":-89.0895,"lo2":-89.0444,"dy":0.0017,"dx":0.0017,"nx":28,"ny":28,"refTime":"2023-10-27T09:00:00:Z","depth":"2","parameterNumber":2,"parameterNumberName":"U-component_of_CURRENTS"},"data":[0,0,0,0,0,0,0,0,0,0,0,0,0,0,0,0,0,0,0,0,0,0,0,0,0,0,0,0,0,0,0,0,0,0,0,0,0,0,0,0,0,0,0,0,0,0,0,0,0,0,0,0,0,0,0,0,0,0,0.1857,0.1857,0,0.1886,0.1887,0.1887,0.1896,0.1896,0.1896,0.1895,0.1879,0.1879,0.1879,0,0,0,0,0,0,0,0,0,0,0,0,0,0.1849,0.1849,0.1857,0.1857,0.1857,0.1886,0.1887,0.1887,0.1896,0.1896,0.1896,0.1895,0.188,0.1879,0.1879,0,0,0,0,0,0,0,0,0,0,0,0,0,0.1863,0.1849,0.1857,0.1864,0.1865,0.1886,0.1887,0.1887,0.1896,0.1896,0.1895,0.1895,0.188,0.1879,0.1879,0.1884,0,0,0.1878,0.1878,0,0,0,0,0,0,0,0,0.1862,0.1864,0.1863,0.1864,0.1865,0.1886,0.1878,0.1884,0.1896,0.1885,0.1895,0.1895,0.1877,0.1877,0.1885,0.1883,0.1883,0.1878,0.1878,0.1878,0.1878,0,0,0,0,0,0,0,0.1861,0.1863,0.1869,0.1863,0.1865,0.1881,0.1882,0.188,0.1883,0.1886,0.1887,0.1889,0.1877,0.1886,0.1885,0.1882,0.1878,0.1878,0.1878,0.1877,0.1873,0.1873,0,0,0,0,0,0,0.1854,0.1861,0.1868,0.187,0.1862,0.1881,0.1882,0.1881,0.1884,0.1884,0.1889,0.1889,0.1886,0.1885,0.1884,0.1929,0.1878,0.1877,0.1877,0.1873,0.1873,0.1873,0,0,0,0,0,0,0.1854,0.1854,0.1867,0.1866,0.1869,0.1881,0.1879,0.1881,0.1904,0.1886,0.1886,0.1911,0.1886,0.1885,0.189,0.1926,0.1877,0.1877,0.1873,0.1873,0.1873,0.1992,0,0,0,0,0,0,0.1853,0.1854,0.1862,0.1865,0.1868,0.1883,0.1879,0.1882,0.1904,0.1905,0.1904,0.1902,0.1886,0.189,0.1889,0.1925,0.1877,0.1873,0.1873,0.1873,0.1988,0.1996,0.2003,0,0,0,0,0,0.1853,0.1856,0.1862,0.1863,0.1874,0.1883,0.1887,0.1895,0.1906,0.1915,0.1915,0.1903,0.189,0.1891,0.1889,0.1926,0.1873,0.1873,0.1873,0.1985,0.1995,0.2003,0,0,0,0,0,0,0.1849,0.1857,0.1863,0.1867,0.1878,0.1884,0.1896,0.1908,0.192,0.1923,0.1912,0.1909,0.1925,0.1899,0.19,0.1918,0.1876,0.1876,0.1961,0.197,0.1978,0.2015,0.1876,0,0,0,0,0,0.1854,0.1864,0.187,0.1875,0.1882,0.1897,0.1907,0.1914,0.192,0.1926,0.1927,0.192,0.1923,0.1926,0.1913,0.1932,0.1928,0.1947,0.1955,0.1962,0.1987,0.201,0.2024,0.1874,0.1874,0.1874,0,0,0.1852,0.186,0.1865,0.1877,0.1888,0.19,0.1903,0.1919,0.1947,0.1921,0.1956,0.1948,0.193,0.1949,0.1954,0.1937,0.1999,0.1962,0.1969,0.1991,0.2012,0.2028,0.2041,0.1874,0.1874,0.1874,0,0,0.1853,0.1864,0.1873,0.1883,0.1903,0.1914,0.1924,0.1941,0.1968,0.1995,0.1986,0.2011,0.2,0.2014,0.2016,0.2057,0.2036,0.2034,0.2116,0.2139,0.2153,0.2165,0.2179,0.2191,0.2043,0.2043,0.2043,0,0.1856,0.1863,0.1877,0.1888,0.19,0.1922,0.1935,0.1969,0.199,0.2008,0.2012,0.2039,0.2041,0.2084,0.2111,0.2083,0.2079,0.2093,0.2155,0.2166,0.2177,0.2188,0.22,0.2049,0.2048,0.2047,0.2047,0,0.1861,0.187,0.1876,0.19,0.1918,0.1931,0.197,0.1994,0.203,0.2057,0.211,0.2135,0.2143,0.2161,0.2165,0.2236,0.2203,0.2164,0.2146,0.2201,0.2206,0.2217,0.2057,0.2055,0.2053,0.2052,0,0,0.1848,0.1876,0.1877,0.1889,0.1925,0.1936,0.1984,0.2024,0.2058,0.2113,0.2166,0.2231,0.2247,0.2252,0.2265,0.2327,0.2421,0.2296,0.2294,0.2335,0.2467,0.2312,0.2309,0.2391,0.2394,0.2396,0.2442,0,0.1848,0.1867,0.1887,0.1909,0.1919,0.195,0.1994,0.2037,0.2084,0.2137,0.221,0.2263,0.228,0.231,0.2371,0.2409,0.2454,0.2412,0.2385,0.2384,0.2262,0.2318,0.2095,0.2106,0.2452,0.2454,0.2455,0,0.1846,0.1856,0.1877,0.1912,0.1922,0.1945,0.1999,0.2047,0.2124,0.2161,0.2226,0.2271,0.239,0.2389,0.25,0.2467,0.2481,0.2515,0.2515,0.2342,0.225,0.2103,0.2112,0.2473,0.2471,0.247,0.2469,0,0.1826,0.1851,0.187,0.1879,0.1922,0.1943,0.1982,0.2047,0.2092,0.219,0.2233,0.233,0.2413,0.2461,0.2523,0.252,0.2622,0.2602,0.2472,0.246,0.2252,0.2216,0.2664,0.2664,0.2664,0.2663,0.2663,0,0.1818,0.1829,0.186,0.1865,0.1888,0.1939,0.1982,0.2025,0.2105,0.2153,0.2257,0.2306,0.2444,0.2502,0.2532,0.2526,0.2607,0.2508,0.2469,0.2281,0.2249,0.2544,0.2529,0.2665,0.2665,0.2664,0.2664,0,0.1798,0.182,0.183,0.1866,0.1877,0.1902,0.1966,0.2,0.2091,0.216,0.2204,0.2325,0.2403,0.2484,0.2571,0.2529,0.254,0.2499,0.2265,0.2197,0.2371,0.2362,0.2395,0.239,0.2386,0.2383,0.238,0,0.1791,0.1795,0.1815,0.1818,0.1835,0.1872,0.1898,0.1977,0.202,0.2141,0.2176,0.2287,0.2294,0.2354,0.233,0.2322,0.2431,0.21,0.2058,0.2388,0.2348,0.2345,0.2341,0.1839,0.1832,0.1826,0.1821,0,0.1766,0.1777,0.1782,0.1782,0.18,0.1813,0.1866,0.1876,0.1977,0.2008,0.2044,0.2055,0.212,0.2,0.1993,0.1963,0.2087,0.1977,0.2392,0.192,0.186,0.1821,0.1837,0.1769,0.1775,0.1778,0.1781,0.1783,0.1746,0.1737,0.1741,0.1736,0.1749,0.1742,0.1726,0.1767,0.1763,0.1777,0.1842,0.1778,0.1804,0.1665,0.1594,0.157,0.175,0.1677,0.1697,0.1722,0.1628,0.1562,0.1399,0.1402,0.1404,0.1407,0.1409,0,0.17,0.1697,0.1694,0.1672,0.1649,0.1687,0.169,0.1639,0.1575,0.1567,0.1537,0.1341,0.1214,0.1267,0.1127,0.1108,0.1132,0.1071,0.1093,0.1144,0.1189,0.1071,0.0692,0.069,0.0689,0.0687,0,0,0.1683,0.1651,0.1638,0.1569,0.156,0.1499,0.1474,0.1398,0.1357,0.1207,0.1122,0.1153,0.1186,0.0919,0.0879,0.076,0.0955,0.0719,0.1289,0.1364,0.1407,0.1525,0.1397,0,0,0,0,0]},{"header":{"parameterUnit":"m.s-1","parameterCategory":2,"la1":30.2991,"la2":30.254,"lo1":-89.0895,"lo2":-89.0444,"dy":0.0017,"dx":0.0017,"nx":28,"ny":28,"refTime":"2023-10-27T09:00:00:Z","depth":"2","parameterNumber":3,"parameterNumberName":"V-component_of_CURRENTS"},"data":[0,0,0,0,0,0,0,0,0,0,0,0,0,0,0,0,0,0,0,0,0,0,0,0,0,0,0,0,0,0,0,0,0,0,0,0,0,0,0,0,0,0,0,0,0,0,0,0,0,0,0,0,0,0,0,0,0,0,0.025,0.0249,0,0.0222,0.0222,0.0222,0.0221,0.0221,0.0221,0.0221,0.0229,0.0229,0.0229,0,0,0,0,0,0,0,0,0,0,0,0,0,0.0293,0.0293,0.025,0.0249,0.0249,0.0222,0.0222,0.0222,0.0221,0.0221,0.0221,0.0221,0.0229,0.0229,0.0229,0,0,0,0,0,0,0,0,0,0,0,0,0,0.0273,0.0293,0.025,0.0244,0.0243,0.0222,0.0222,0.0222,0.0221,0.0221,0.0221,0.0222,0.0229,0.0229,0.0229,0.0224,0,0,0.0229,0.0229,0,0,0,0,0,0,0,0,0.0274,0.0271,0.0245,0.0244,0.0243,0.0224,0.024,0.0224,0.0221,0.0231,0.0221,0.0222,0.0229,0.0229,0.0225,0.0225,0.0225,0.0229,0.0229,0.0229,0.0229,0,0,0,0,0,0,0,0.0275,0.0272,0.0241,0.0245,0.0243,0.0239,0.0237,0.0237,0.0231,0.023,0.023,0.0224,0.0229,0.0225,0.0226,0.0225,0.0229,0.0229,0.0229,0.0229,0.0272,0.0273,0,0,0,0,0,0,0.0275,0.0274,0.0241,0.024,0.0257,0.0238,0.0236,0.0231,0.023,0.0229,0.0223,0.0224,0.0225,0.0226,0.0226,0.0247,0.0229,0.0229,0.0229,0.0271,0.0273,0.0274,0,0,0,0,0,0,0.0276,0.0273,0.0243,0.0255,0.025,0.0237,0.0232,0.023,0.0225,0.0224,0.0225,0.0219,0.0225,0.0226,0.0236,0.0247,0.0229,0.0229,0.027,0.0272,0.0273,0.0273,0,0,0,0,0,0,0.0278,0.0273,0.0271,0.0255,0.025,0.0238,0.0231,0.023,0.022,0.022,0.0221,0.0222,0.0226,0.0236,0.0236,0.0247,0.0229,0.0268,0.0271,0.0273,0.0272,0.0275,0.0277,0,0,0,0,0,0.0279,0.0277,0.0271,0.0267,0.0247,0.0238,0.0235,0.0228,0.0219,0.0223,0.0226,0.0222,0.0249,0.0236,0.0236,0.0247,0.0267,0.027,0.0272,0.0271,0.0274,0.0277,0,0,0,0,0,0,0.0296,0.0276,0.027,0.0261,0.0253,0.0237,0.0235,0.0225,0.0227,0.0228,0.0227,0.0228,0.0246,0.0248,0.0233,0.027,0.0261,0.0264,0.026,0.0263,0.0266,0.0289,0.0229,0,0,0,0,0,0.0298,0.0291,0.0273,0.0268,0.0263,0.0247,0.0241,0.0236,0.0232,0.0232,0.0232,0.0241,0.0256,0.0259,0.0273,0.0281,0.0281,0.0294,0.0297,0.0299,0.032,0.0326,0.0331,0.0282,0.0282,0.0282,0,0,0.0302,0.029,0.0286,0.0271,0.0262,0.0266,0.0245,0.0238,0.0247,0.0233,0.0247,0.0249,0.0262,0.0281,0.0289,0.0282,0.0308,0.0302,0.0303,0.0324,0.0329,0.0333,0.0338,0.0284,0.0283,0.0283,0,0,0.0309,0.0297,0.0295,0.0291,0.0279,0.0275,0.0272,0.0259,0.026,0.0267,0.0268,0.0279,0.0288,0.0306,0.0314,0.034,0.0324,0.034,0.0366,0.037,0.0374,0.0378,0.0359,0.0361,0.0338,0.0338,0.0338,0,0.0317,0.0312,0.0294,0.0296,0.0301,0.0281,0.0291,0.0289,0.0283,0.03,0.0279,0.0316,0.0308,0.0351,0.0353,0.0347,0.0336,0.0346,0.0372,0.0376,0.0379,0.036,0.0362,0.0338,0.0338,0.0338,0.0338,0,0.0323,0.0325,0.0325,0.0327,0.033,0.0335,0.0332,0.0343,0.0338,0.0343,0.0376,0.0367,0.0398,0.0386,0.037,0.04,0.0378,0.0373,0.0358,0.0384,0.0362,0.0364,0.0339,0.0338,0.0338,0.0338,0,0,0.0337,0.0331,0.0334,0.0347,0.0349,0.0357,0.0381,0.0407,0.044,0.0431,0.0476,0.0474,0.0471,0.0482,0.0463,0.0452,0.0437,0.0415,0.0415,0.0387,0.0426,0.0417,0.0418,0.0427,0.0428,0.0428,0.0391,0,0.0354,0.0363,0.0361,0.0392,0.0403,0.0413,0.0444,0.0469,0.0485,0.0525,0.0525,0.0555,0.0507,0.0515,0.0501,0.0466,0.0448,0.0447,0.0416,0.0416,0.0397,0.0423,0.0447,0.0417,0.0393,0.0393,0.0393,0,0.0367,0.0375,0.0396,0.0437,0.0445,0.0467,0.0532,0.0556,0.0609,0.0625,0.0658,0.0656,0.0659,0.0604,0.0564,0.0562,0.0499,0.0456,0.0454,0.0455,0.0412,0.0395,0.0422,0.0397,0.0396,0.0396,0.0396,0,0.0383,0.0409,0.0428,0.0438,0.0475,0.0506,0.0536,0.059,0.0635,0.069,0.0729,0.0739,0.0745,0.0688,0.0597,0.0578,0.0539,0.0506,0.0441,0.0438,0.0463,0.0462,0.0478,0.0478,0.0478,0.0478,0.0479,0,0.04,0.0422,0.044,0.0452,0.0512,0.0528,0.0603,0.064,0.071,0.0788,0.0779,0.0834,0.0763,0.0734,0.0638,0.0554,0.0574,0.0462,0.0441,0.0461,0.046,0.0454,0.0451,0.0477,0.0477,0.0478,0.0478,0,0.0406,0.0412,0.0446,0.049,0.0514,0.0555,0.0643,0.0705,0.0755,0.0856,0.0877,0.0905,0.0874,0.0791,0.0699,0.0611,0.0527,0.0485,0.0502,0.0485,0.0406,0.0404,0.0418,0.0417,0.0417,0.0417,0.0417,0,0.0404,0.0416,0.047,0.0504,0.0525,0.0592,0.0653,0.0724,0.0797,0.0907,0.0964,0.0968,0.0991,0.0854,0.0721,0.058,0.0538,0.048,0.0456,0.0428,0.0406,0.0404,0.0403,0.0472,0.0472,0.0472,0.0472,0,0.0412,0.0426,0.0456,0.0524,0.0587,0.0667,0.0756,0.0823,0.0927,0.1007,0.1106,0.1127,0.1034,0.0921,0.0729,0.0626,0.0509,0.0479,0.0468,0.0486,0.0476,0.0455,0.0452,0.0474,0.0474,0.0474,0.0474,0.0474,0.0421,0.0447,0.0488,0.0559,0.0632,0.0735,0.0811,0.0914,0.1034,0.115,0.1178,0.1183,0.1084,0.0835,0.0697,0.053,0.0537,0.0449,0.0449,0.0449,0.0465,0.0456,0.0451,0.0451,0.0451,0.045,0.045,0,0.0436,0.0469,0.0526,0.0613,0.0692,0.0735,0.088,0.0954,0.1091,0.1164,0.1228,0.1097,0.0989,0.084,0.0621,0.0495,0.0476,0.0424,0.0441,0.0441,0.0441,0.0456,0.044,0.0439,0.0438,0.0438,0,0,0.0446,0.0492,0.0524,0.0647,0.0713,0.0834,0.0919,0.1028,0.1099,0.1153,0.1141,0.1138,0.1003,0.0826,0.0689,0.0564,0.0513,0.0521,0.0549,0.0588,0.0589,0.0483,0.0511,0,0,0,0,0]}],[{"header":{"parameterUnit":"m.s-1","parameterCategory":2,"la1":30.2991,"la2":30.254,"lo1":-89.0895,"lo2":-89.0444,"dy":0.0017,"dx":0.0017,"nx":28,"ny":28,"refTime":"2023-10-27T09:00:00:Z","depth":"4","parameterNumber":2,"parameterNumberName":"U-component_of_CURRENTS"},"data":[0,0,0,0,0,0,0,0,0,0,0,0,0,0,0,0,0,0,0,0,0,0,0,0,0,0,0,0,0,0,0,0,0,0,0,0,0,0,0,0,0,0,0,0,0,0,0,0,0,0,0,0,0,0,0,0,0,0,0.1085,0.1085,0,0.0998,0.0997,0.0995,0.0969,0.097,0.0971,0.0972,0.093,0.0928,0.0926,0,0,0,0,0,0,0,0,0,0,0,0,0,0.108,0.1081,0.1085,0.1085,0.1084,0.0998,0.0997,0.0995,0.0969,0.097,0.0971,0.0972,0.0931,0.0928,0.0926,0,0,0,0,0,0,0,0,0,0,0,0,0,0.1043,0.1081,0.1086,0.1064,0.1062,0.0999,0.0997,0.0995,0.0969,0.097,0.0972,0.0973,0.0931,0.0929,0.0926,0.0883,0,0,0.0917,0.0916,0,0,0,0,0,0,0,0,0.1045,0.1042,0.1068,0.1065,0.1063,0.1,0.098,0.0961,0.0969,0.1,0.0972,0.0973,0.096,0.0954,0.0928,0.0881,0.0879,0.0917,0.0915,0.0914,0.0913,0,0,0,0,0,0,0,0.1048,0.1045,0.1046,0.1067,0.1064,0.1008,0.1005,0.0975,0.0971,0.0997,0.0996,0.0993,0.0958,0.0931,0.0927,0.0878,0.0917,0.0914,0.0913,0.0912,0.0872,0.0873,0,0,0,0,0,0,0.1074,0.1049,0.1049,0.1044,0.1062,0.1008,0.1004,0.1015,0.097,0.0965,0.0992,0.0992,0.0935,0.0931,0.0926,0.094,0.0914,0.0911,0.091,0.0871,0.0872,0.0873,0,0,0,0,0,0,0.1074,0.1075,0.1053,0.1047,0.1041,0.1008,0.1019,0.1013,0.1012,0.0967,0.0962,0.1002,0.0936,0.093,0.0925,0.0936,0.091,0.0907,0.0871,0.0872,0.0873,0.0926,0,0,0,0,0,0,0.1075,0.1076,0.1099,0.1049,0.1042,0.1027,0.1018,0.101,0.1008,0.1008,0.0973,0.0969,0.0937,0.093,0.0922,0.0932,0.0905,0.087,0.0871,0.0872,0.0923,0.0928,0.0933,0,0,0,0,0,0.1075,0.1097,0.1101,0.1101,0.1073,0.1027,0.1017,0.0994,0.1008,0.1,0.0991,0.0971,0.0932,0.0928,0.0919,0.0928,0.0869,0.0871,0.0872,0.0921,0.0927,0.0933,0,0,0,0,0,0,0.1094,0.1095,0.1099,0.1118,0.1084,0.1025,0.1027,0.101,0.0992,0.1012,0.0974,0.0967,0.0971,0.0942,0.0938,0.0922,0.0899,0.0899,0.0939,0.0945,0.095,0.0957,0.0903,0,0,0,0,0,0.1114,0.1143,0.1109,0.1126,0.112,0.108,0.1066,0.1048,0.1023,0.1017,0.0995,0.0979,0.0963,0.0952,0.0932,0.0915,0.0927,0.0917,0.0922,0.0927,0.0927,0.0975,0.0985,0.0878,0.0878,0.0878,0,0,0.1124,0.1132,0.1145,0.1134,0.1115,0.1089,0.1075,0.1063,0.1041,0.1017,0.1004,0.1,0.0966,0.0954,0.0952,0.0934,0.0965,0.0928,0.0932,0.093,0.0978,0.0989,0.0998,0.0879,0.0879,0.0878,0,0,0.1145,0.117,0.1194,0.117,0.1156,0.1121,0.1127,0.1086,0.1075,0.1055,0.1046,0.1053,0.1011,0.0992,0.0975,0.0994,0.0998,0.0992,0.101,0.1057,0.1067,0.1076,0.1113,0.1124,0.0985,0.0985,0.0985,0,0.1156,0.118,0.1185,0.1185,0.1168,0.1141,0.1127,0.1099,0.106,0.1059,0.1064,0.1046,0.1025,0.1012,0.102,0.1005,0.1035,0.099,0.1066,0.1074,0.1082,0.1118,0.113,0.0988,0.0987,0.0987,0.0987,0,0.1175,0.1192,0.1201,0.1199,0.1176,0.1162,0.1123,0.1111,0.1108,0.1085,0.1096,0.1078,0.1071,0.1065,0.1043,0.1081,0.1087,0.1078,0.1055,0.1097,0.1131,0.1143,0.0992,0.0991,0.099,0.0989,0,0,0.1189,0.1213,0.1215,0.121,0.1185,0.1157,0.114,0.1106,0.1108,0.1097,0.1108,0.1091,0.1115,0.1099,0.109,0.1118,0.1201,0.1125,0.1126,0.1168,0.1315,0.1182,0.1181,0.1219,0.1221,0.1223,0.132,0,0.1194,0.1213,0.1214,0.1193,0.1185,0.1157,0.1135,0.1111,0.1104,0.111,0.1117,0.1134,0.1116,0.1141,0.1165,0.1193,0.1233,0.1175,0.1262,0.1264,0.1145,0.119,0.123,0.1328,0.1331,0.1333,0.1334,0,0.1199,0.1209,0.1219,0.1196,0.1191,0.1175,0.115,0.1127,0.1131,0.1143,0.1171,0.1184,0.1219,0.1213,0.1285,0.1258,0.1297,0.1316,0.1321,0.1182,0.1151,0.1275,0.1355,0.1353,0.1352,0.1351,0.1349,0,0.1199,0.1197,0.1213,0.1204,0.1182,0.1183,0.1164,0.1154,0.1145,0.1191,0.1213,0.1254,0.1292,0.1343,0.1361,0.1355,0.1442,0.1437,0.1353,0.1345,0.1415,0.1404,0.1513,0.1513,0.1513,0.1513,0.1512,0,0.1187,0.1191,0.1223,0.1223,0.1217,0.1203,0.1201,0.1196,0.1209,0.1207,0.1251,0.1262,0.1336,0.1371,0.1397,0.1391,0.1477,0.1363,0.1361,0.1434,0.1425,0.1423,0.1412,0.1516,0.1516,0.1515,0.1514,0,0.1177,0.1208,0.1217,0.1225,0.1225,0.1225,0.121,0.1199,0.1233,0.1239,0.1265,0.1304,0.1349,0.1384,0.1466,0.1422,0.1441,0.1425,0.1497,0.1496,0.1313,0.1303,0.1359,0.1355,0.1352,0.1349,0.1347,0,0.1172,0.1191,0.1226,0.1229,0.1238,0.1235,0.1218,0.1221,0.1206,0.1236,0.1231,0.1294,0.131,0.1307,0.1367,0.1404,0.1387,0.1397,0.1353,0.1305,0.1299,0.1294,0.1289,0.1342,0.1341,0.134,0.1339,0,0.1147,0.1193,0.1203,0.1222,0.122,0.1188,0.1171,0.1151,0.1147,0.12,0.1164,0.1169,0.1205,0.1238,0.1266,0.129,0.1384,0.1362,0.1369,0.1329,0.1285,0.128,0.1279,0.1328,0.1329,0.133,0.1331,0,0.1137,0.1143,0.1182,0.1173,0.1179,0.1121,0.1114,0.1066,0.1047,0.1071,0.1066,0.1117,0.1184,0.118,0.1204,0.1207,0.1202,0.1169,0.1187,0.12,0.1097,0.1015,0.0979,0,0,0,0,0,0.1103,0.1099,0.1108,0.1083,0.1089,0.1078,0.1061,0.1051,0.1059,0.1001,0.1018,0.1034,0.1042,0.108,0.1057,0.116,0.1224,0.1128,0.12,0.1264,0.1277,0.1168,0,0,0,0,0,0,0.1081,0.1102,0.1088,0.101,0.0977,0.0945,0.0931,0.0933,0.0892,0.0928,0.0941,0.0979,0.1016,0.1053,0.1043,0.1055,0.1078,0.1169,0.1166,0.1256,0.1268,0.1279,0.1171,0,0,0,0,0]},{"header":{"parameterUnit":"m.s-1","parameterCategory":2,"la1":30.2991,"la2":30.254,"lo1":-89.0895,"lo2":-89.0444,"dy":0.0017,"dx":0.0017,"nx":28,"ny":28,"refTime":"2023-10-27T09:00:00:Z","depth":"4","parameterNumber":3,"parameterNumberName":"V-component_of_CURRENTS"},"data":[0,0,0,0,0,0,0,0,0,0,0,0,0,0,0,0,0,0,0,0,0,0,0,0,0,0,0,0,0,0,0,0,0,0,0,0,0,0,0,0,0,0,0,0,0,0,0,0,0,0,0,0,0,0,0,0,0,0,0.0271,0.0271,0,0.0298,0.0298,0.0299,0.0329,0.033,0.033,0.033,0.0388,0.0389,0.039,0,0,0,0,0,0,0,0,0,0,0,0,0,0.0289,0.0289,0.0271,0.0271,0.0271,0.0298,0.0298,0.0299,0.0329,0.033,0.033,0.033,0.0387,0.0389,0.0391,0,0,0,0,0,0,0,0,0,0,0,0,0,0.0299,0.0289,0.0271,0.0286,0.0288,0.0298,0.0298,0.0299,0.0329,0.033,0.033,0.033,0.0386,0.0389,0.0391,0.0402,0,0,0.0398,0.0398,0,0,0,0,0,0,0,0,0.0298,0.0299,0.0284,0.0285,0.0287,0.0307,0.0326,0.0334,0.0329,0.0318,0.033,0.033,0.0361,0.0365,0.0375,0.0405,0.0407,0.0398,0.0399,0.04,0.0401,0,0,0,0,0,0,0,0.0298,0.0298,0.0286,0.0284,0.0285,0.0306,0.0308,0.0328,0.0342,0.0319,0.032,0.0317,0.0362,0.0373,0.0377,0.0408,0.0398,0.04,0.0401,0.0402,0.0474,0.0474,0,0,0,0,0,0,0.0284,0.0297,0.0285,0.0286,0.0288,0.0305,0.0307,0.0304,0.0341,0.0345,0.0316,0.0318,0.0369,0.0374,0.0379,0.0427,0.04,0.0402,0.0403,0.0473,0.0474,0.0474,0,0,0,0,0,0,0.0284,0.0282,0.0283,0.0289,0.029,0.0304,0.03,0.0304,0.032,0.0338,0.0344,0.0328,0.0369,0.0376,0.0407,0.0428,0.0403,0.0405,0.0472,0.0473,0.0474,0.0502,0,0,0,0,0,0,0.0284,0.0282,0.0283,0.0288,0.0289,0.0294,0.03,0.0304,0.0315,0.0317,0.035,0.0355,0.037,0.0404,0.0409,0.043,0.0407,0.0472,0.0473,0.0474,0.05,0.0503,0.0506,0,0,0,0,0,0.0285,0.0283,0.0282,0.0281,0.0286,0.0294,0.0297,0.0311,0.0315,0.0325,0.0349,0.0355,0.0414,0.0406,0.0412,0.0435,0.0471,0.0472,0.0474,0.0499,0.0503,0.0506,0,0,0,0,0,0,0.0296,0.0285,0.0285,0.0281,0.0288,0.0297,0.0306,0.0312,0.0339,0.0345,0.0365,0.0372,0.0407,0.0414,0.0404,0.0457,0.0443,0.0445,0.0459,0.0463,0.0466,0.0471,0.0409,0,0,0,0,0,0.0295,0.029,0.0287,0.0287,0.0287,0.0298,0.0304,0.0312,0.0329,0.0342,0.0363,0.0388,0.0416,0.0433,0.0455,0.0485,0.0468,0.0502,0.0505,0.0508,0.0515,0.0494,0.0496,0.0479,0.0479,0.0479,0,0,0.0299,0.0293,0.0291,0.0288,0.0295,0.0307,0.0303,0.0313,0.0336,0.0344,0.0385,0.0399,0.0425,0.0462,0.0478,0.0472,0.0504,0.051,0.0512,0.0518,0.0495,0.0497,0.0498,0.048,0.048,0.0479,0,0,0.0304,0.0299,0.0297,0.0303,0.0307,0.0317,0.0319,0.0331,0.035,0.0383,0.0397,0.0422,0.0464,0.0488,0.0505,0.0537,0.0518,0.0543,0.0568,0.0548,0.0549,0.0549,0.0527,0.0525,0.0547,0.0547,0.0547,0,0.0313,0.0309,0.0301,0.0306,0.0318,0.0321,0.0337,0.0357,0.0382,0.0404,0.04,0.0461,0.0478,0.0528,0.0543,0.0545,0.0526,0.0553,0.0551,0.0551,0.0552,0.0528,0.0526,0.0548,0.0548,0.0548,0.0548,0,0.0317,0.0322,0.0324,0.0333,0.0347,0.036,0.0379,0.0403,0.0423,0.0442,0.0487,0.0506,0.0542,0.0551,0.0562,0.0583,0.0566,0.0554,0.054,0.0555,0.0529,0.0527,0.0551,0.055,0.055,0.0549,0,0,0.0324,0.0326,0.033,0.0345,0.0365,0.0379,0.0418,0.0456,0.049,0.0511,0.055,0.0593,0.0593,0.0612,0.062,0.0609,0.0594,0.0587,0.0585,0.0562,0.0543,0.0512,0.0506,0.0576,0.0575,0.0575,0.0523,0,0.0337,0.0348,0.0352,0.0389,0.0402,0.0427,0.0468,0.0504,0.0533,0.0571,0.0589,0.0629,0.062,0.0639,0.0626,0.0608,0.0589,0.0609,0.0535,0.0533,0.0501,0.0503,0.0575,0.0521,0.052,0.052,0.0519,0,0.0344,0.0353,0.0377,0.0422,0.0433,0.0462,0.0528,0.0564,0.0614,0.0636,0.0664,0.0673,0.0689,0.0664,0.0628,0.0639,0.0595,0.0567,0.0564,0.0525,0.0497,0.0504,0.0514,0.0514,0.0515,0.0515,0.0516,0,0.035,0.038,0.0402,0.0415,0.046,0.0494,0.0532,0.0587,0.0632,0.0676,0.0704,0.071,0.0723,0.067,0.0623,0.0621,0.056,0.0546,0.0475,0.0472,0.0503,0.0503,0.0502,0.0502,0.0503,0.0503,0.0503,0,0.0359,0.0383,0.0409,0.0423,0.048,0.0508,0.0577,0.0616,0.0673,0.0728,0.0737,0.0765,0.0722,0.0689,0.0627,0.0545,0.0559,0.048,0.0457,0.0516,0.0517,0.05,0.0501,0.0501,0.0501,0.0502,0.0502,0,0.0356,0.0368,0.0403,0.0453,0.0479,0.0521,0.061,0.0659,0.0707,0.0772,0.0791,0.0808,0.0766,0.0707,0.0624,0.0557,0.0477,0.044,0.051,0.0492,0.04,0.0403,0.0355,0.0354,0.0352,0.0351,0.035,0,0.035,0.0361,0.042,0.0452,0.0478,0.0547,0.0602,0.0673,0.0725,0.0797,0.0827,0.0817,0.0811,0.0671,0.06,0.047,0.0448,0.0395,0.0398,0.0403,0.0385,0.039,0.0394,0.0348,0.0348,0.0348,0.0347,0,0.0346,0.0366,0.0396,0.0457,0.0517,0.0588,0.0667,0.0706,0.0789,0.0829,0.0852,0.0805,0.0754,0.0659,0.0561,0.0468,0.0424,0.0381,0.0383,0.0385,0.0394,0.0379,0.0385,0.0343,0.0344,0.0344,0.0344,0,0.0348,0.037,0.041,0.0469,0.0541,0.0614,0.0657,0.0721,0.0777,0.0849,0.0847,0.081,0.0794,0.0658,0.0568,0.0475,0.0446,0.0397,0.0397,0.0401,0.0429,0.0448,0.0394,0,0,0,0,0,0.0347,0.0372,0.0422,0.049,0.0559,0.0607,0.0698,0.0739,0.0809,0.0821,0.0838,0.0791,0.0676,0.0636,0.0535,0.0534,0.0424,0.041,0.0366,0.0318,0.0323,0.0345,0,0,0,0,0,0,0.0347,0.0386,0.0415,0.0496,0.0544,0.0632,0.0691,0.0739,0.0748,0.0795,0.0737,0.0735,0.0626,0.0727,0.0522,0.0499,0.0449,0.037,0.0366,0.0315,0.032,0.0324,0.0348,0,0,0,0,0]}]]